EHI
4 8 21 29 25 20 19 12 10 13 14 8 2 0 1 2 5 9 16 30 46 55 48 35 23 11 3 0 0 1 2 1 0 0 0 0 0 0 0 0 0 0 0
18 23 36 41 32 25 26 25 23 25 24 15 5 2 2 5 7 8 11 22 38 49 50 42 29 16 6 2 1 2 2 2 1 1 0 0 0 0 0 0 0 0 0
47 52 58 55 44 37 41 44 43 41 35 26 17 10 9 11 10 7 8 13 22 33 44 45 35 23 13 7 4 3 2 2 3 2 0 0 0 0 0 0 0 0 0
68 74 74 66 59 56 57 58 56 51 46 38 29 22 19 19 14 9 9 9 10 17 28 33 32 27 18 10 6 4 2 3 4 2 0 0 0 0 0 0 0 0 0
76 81 81 75 72 72 68 61 58 55 49 41 31 24 23 22 17 11 9 7 7 9 12 15 19 20 15 10 8 5 3 4 3 1 0 0 0 0 0 0 0 0 0
79 81 81 77 75 72 64 55 49 46 40 32 23 17 17 16 13 9 6 5 7 7 5 4 6 7 7 9 8 5 3 3 1 0 0 0 0 0 0 0 0 0 0
74 74 72 68 63 57 48 40 35 30 26 22 16 11 8 7 5 4 3 3 4 5 4 2 1 1 2 5 6 4 2 1 0 0 0 0 0 0 0 0 0 0 0
58 56 53 49 42 36 31 27 23 21 17 14 10 6 3 1 1 1 1 1 2 2 1 1 0 0 1 2 2 1 1 0 0 0 0 0 0 0 0 0 0 0 0
35 34 31 27 23 21 20 18 17 15 11 8 5 3 1 0 0 0 0 0 0 0 0 0 0 0 0 0 0 0 0 0 0 0 0 0 0 0 0 0 0 0 0
18 17 15 12 12 13 12 12 10 8 6 5 3 1 0 0 0 0 0 0 0 0 0 0 0 0 0 0 0 0 0 0 0 0 0 0 0 0 0 0 0 0 0
9 9 7 6 6 6 6 6 5 3 2 1 1 0 0 0 0 0 0 0 0 0 0 0 0 0 0 0 0 0 0 0 0 0 0 0 0 0 0 0 0 0 0
4 4 3 2 2 1 2 2 2 0 0 0 0 0 0 0 0 0 0 0 0 0 0 0 0 0 0 0 0 0 0 0 0 0 0 0 0 0 0 0 0 0 0
1 1 1 0 0 0 0 0 0 0 0 0 0 0 0 0 0 0 0 0 0 0 0 0 0 0 0 0 0 0 0 0 0 0 0 0 0 0 0 0 0 0 0
0 0 0 0 0 0 0 0 0 0 0 0 0 0 0 0 0 0 0 0 0 0 0 0 0 0 0 0 0 0 0 0 0 0 0 0 0 0 0 0 0 0 0
0 0 0 0 0 0 0 0 0 0 0 0 0 0 0 0 0 0 0 0 0 0 0 0 0 0 0 0 0 0 0 0 0 0 0 0 0 0 0 0 0 0 0
0 0 0 0 0 0 0 0 0 0 0 0 0 0 0 0 0 0 0 0 0 0 0 0 0 0 0 0 0 0 0 0 0 0 0 0 0 0 0 0 0 0 0
0 0 0 0 0 0 0 0 0 0 0 0 0 0 0 0 0 0 0 0 0 0 0 0 0 0 0 0 0 0 0 0 0 0 0 0 0 0 0 0 0 0 0
0 0 0 0 0 0 0 0 0 0 0 0 0 0 0 0 0 0 0 0 0 0 0 0 0 0 0 0 0 0 0 0 0 0 0 0 0 0 0 0 0 0 0
0 0 0 0 0 0 0 0 0 0 0 0 0 0 0 0 0 0 0 0 0 0 0 0 0 0 0 0 0 0 0 0 0 0 0 0 0 0 0 0 0 0 0
0 0 0 0 0 0 0 0 0 0 0 0 0 0 0 0 0 0 0 0 0 0 0 0 0 0 0 0 0 0 0 0 0 0 0 0 0 0 0 0 0 0 0
0 0 0 0 0 0 0 0 0 0 0 0 0 0 0 0 0 0 0 0 0 0 0 0 0 0 0 0 0 0 0 0 0 0 0 0 0 0 0 0 0 0 0
0 0 0 0 0 0 0 0 0 0 0 0 0 0 0 0 0 0 0 0 0 0 0 0 0 0 0 0 0 0 0 0 0 0 0 0 0 0 0 0 0 0 0
0 0 0 0 0 0 0 0 0 0 0 0 0 0 0 0 0 0 0 0 0 0 0 0 0 0 0 0 0 0 0 0 0 0 0 0 0 0 0 0 0 0 0
0 0 0 0 0 0 0 0 0 0 0 0 0 0 0 0 0 0 0 0 0 0 0 0 0 0 0 0 0 0 0 0 0 0 0 0 0 0 0 0 0 0 0
0 0 0 0 0 0 0 0 0 0 0 0 0 0 0 0 0 0 0 0 0 0 0 0 0 0 0 0 0 0 0 0 0 0 0 0 0 0 0 0 0 0 0
0 0 0 0 0 0 0 0 0 0 0 0 0 0 0 0 0 0 0 0 0 0 0 0 0 0 0 0 0 0 0 0 0 0 0 0 0 0 0 0 0 0 0
Wind_Speed
3 3 2 2 3 3 4 4 3 2 1 2 3 3 3 2 1 4 5 12 13 13 13 13 12 11 10 9 8 7 7 6 5 5 4 3 3 3 3 3 2 3 3
3 1 1 1 1 1 0 1 1 0 0 1 2 3 3 2 1 3 5 7 10 11 12 12 12 11 10 9 8 8 7 7 6 5 5 4 4 4 3 3 3 3 3
2 2 1 1 1 1 0 1 1 1 1 2 2 2 2 2 2 2 4 4 5 7 9 9 10 10 10 10 10 9 8 7 6 6 5 5 5 4 4 4 3 3 3
3 2 1 1 1 1 0 1 0 1 1 1 1 2 1 1 1 1 1 3 3 4 6 8 9 9 9 10 10 9 8 7 7 6 6 6 5 4 4 4 3 3 3
3 2 1 0 0 0 0 1 1 0 1 1 1 1 1 1 2 1 2 2 3 3 4 6 8 8 8 8 8 8 8 7 6 6 6 6 5 5 5 5 5 5 5
1 1 0 0 1 1 1 1 1 0 0 1 2 1 1 2 2 2 2 2 2 2 3 4 4 4 6 6 5 5 5 5 5 4 5 6 6 6 7 7 7 8 8
2 2 1 1 1 1 1 1 1 0 0 1 1 1 1 1 2 2 2 2 2 2 3 3 2 2 2 4 4 3 2 1 1 2 3 3 2 2 4 6 8 9 10
3 1 2 1 1 1 1 1 1 1 0 0 1 0 1 0 1 1 2 2 2 2 2 3 3 2 2 2 4 5 4 4 3 3 4 5 5 5 6 7 8 10 11
6 6 5 4 3 2 1 1 1 1 1 0 1 0 1 1 1 1 1 1 2 2 2 2 3 2 3 4 4 6 8 8 7 7 7 7 8 9 9 10 12 12 13
7 7 6 5 5 3 2 2 3 1 1 0 1 1 1 1 0 0 0 1 1 2 2 2 3 3 4 5 7 10 10 9 8 7 8 8 9 10 12 13 14 15 15
8 8 7 7 7 6 7 7 6 5 4 3 2 1 1 1 1 0 0 1 1 1 2 2 2 2 3 4 5 7 8 6 4 4 6 9 10 12 13 14 16 17 17
8 10 10 10 9 8 8 8 8 9 7 7 5 5 3 3 2 2 1 1 1 1 0 1 1 1 1 2 4 7 5 3 1 3 6 9 12 13 14 15 16 17 18
8 10 10 10 9 9 9 9 9 9 9 8 7 6 5 5 3 3 2 2 2 1 1 0 1 1 1 2 4 4 4 4 5 6 8 10 13 14 15 16 17 18 18
9 9 11 11 11 10 10 9 9 8 8 7 8 7 5 5 5 4 3 2 2 2 2 2 1 1 1 2 3 4 3 5 6 8 10 12 14 15 16 16 16 17 18
9 11 11 11 11 11 10 9 8 8 7 7 6 7 5 4 4 4 3 3 2 3 3 2 2 1 1 1 2 2 3 6 9 11 13 14 15 16 16 16 17 17 18
10 11 10 10 10 10 9 8 6 7 7 6 5 6 6 4 4 4 4 3 2 2 3 3 3 3 3 4 4 3 4 10 12 14 15 15 15 16 17 18 18 18 18
9 9 9 9 9 8 7 7 7 7 6 6 5 6 5 5 4 4 4 4 4 3 3 4 3 4 4 4 5 4 5 6 7 12 12 13 14 16 18 18 18 18 18
8 8 8 8 8 7 6 6 6 6 5 5 5 5 5 5 5 4 4 4 3 3 3 5 4 5 5 5 5 5 6 7 5 10 11 11 14 15 16 17 18 17 17
8 7 6 6 6 5 5 5 4 4 4 4 4 4 4 4 5 5 5 5 4 5 4 4 5 5 4 5 4 5 6 5 7 9 9 9 10 13 14 15 16 16 15
6 5 5 5 6 7 8 8 7 4 4 4 3 4 3 3 4 5 5 5 5 6 5 5 5 5 4 4 4 4 5 4 6 8 7 8 8 9 12 13 13 14 13
6 4 4 5 6 7 8 9 8 7 6 5 4 4 4 2 1 3 4 4 5 5 6 6 6 6 5 5 5 4 6 5 6 4 4 5 5 4 5 7 9 9 9
4 4 5 6 7 7 8 9 8 7 6 5 4 5 5 1 1 4 8 9 9 7 7 6 7 7 7 6 5 6 5 6 5 3 4 6 5 4 4 3 3 6 8
4 4 4 6 7 6 6 8 10 7 6 4 4 4 5 5 5 6 8 10 9 10 11 8 8 9 8 7 6 7 6 7 7 6 5 6 4 4 4 2 3 5 8
2 3 4 5 6 5 4 7 12 7 5 4 4 3 3 3 5 6 8 8 8 7 8 6 6 7 8 6 5 6 7 8 7 5 3 4 4 4 5 2 4 6 7
2 2 3 4 4 4 2 6 9 7 4 4 4 4 4 3 4 6 7 8 8 7 8 9 10 11 13 14 10 5 6 6 7 6 3 3 4 5 4 2 2 3 6
2 2 3 3 3 4 2 4 7 6 5 6 4 2 2 3 5 6 6 7 8 8 9 11 9 10 9 10 10 7 6 5 6 5 2 3 3 3 4 3 3 2 3
Wind_Direction
216 216 180 171 205 186 182 203 226 223 242 299 295 294 304 340 78 124 146 168 171 170 174 179 183 186 187 187 186 187 189 191 188 183 179 175 167 159 148 133 122 114 105
196 200 181 157 290 340 104 213 245 122 297 318 309 317 322 344 69 111 143 175 177 175 176 180 183 185 187 189 188 188 188 186 187 187 183 178 173 165 161 152 143 133 121
183 164 199 163 211 255 288 37 6 11 310 285 295 310 329 349 26 60 139 160 169 176 179 179 182 186 189 191 189 190 189 188 187 185 184 179 174 175 175 170 166 157 147
171 161 205 217 199 190 147 126 7 307 313 310 323 327 347 359 6 49 122 142 152 165 172 175 179 181 186 189 189 190 190 189 186 182 181 180 177 176 174 173 178 178 182
176 170 205 190 95 110 1 268 164 228 302 301 290 282 334 18 10 12 55 83 111 141 156 164 167 169 178 186 190 190 188 184 187 192 200 205 205 206 206 206 212 215 216
132 138 166 34 4 26 8 332 8 50 345 328 304 326 11 17 12 12 18 66 79 114 130 138 155 157 159 163 171 177 183 191 201 211 227 235 235 232 229 228 229 233 234
95 104 119 70 47 25 9 350 299 224 342 342 302 309 324 5 22 18 20 35 52 56 80 99 114 123 144 152 148 156 163 171 228 248 260 273 287 294 266 252 249 249 250
62 81 84 71 67 54 4 334 281 235 243 327 272 280 269 273 320 18 18 33 40 37 55 85 85 86 100 112 109 109 85 69 45 24 19 11 350 316 301 288 276 270 267
54 43 43 43 44 51 48 9 324 254 228 129 46 147 224 232 150 102 38 46 45 38 45 67 84 87 99 96 101 90 83 68 55 41 25 6 349 337 323 303 290 283 280
61 55 50 49 49 42 36 45 48 21 58 142 96 60 83 60 127 161 129 80 75 66 55 59 72 80 79 88 100 102 92 76 56 33 13 355 339 328 320 313 304 295 287
59 54 54 54 50 45 42 44 49 45 47 46 39 31 42 42 16 73 121 47 24 39 60 67 69 80 95 111 118 116 106 89 56 7 340 327 319 313 309 306 303 298 291
60 54 55 57 55 52 49 49 53 54 52 50 45 38 34 33 21 24 30 10 357 331 341 108 119 113 105 109 125 131 137 148 222 287 302 304 303 301 299 297 296 294 294
64 57 59 58 55 53 53 53 53 51 49 52 48 41 40 41 22 15 28 17 356 331 319 265 201 169 152 129 131 164 203 225 244 256 273 284 289 291 293 293 293 293 293
70 64 63 63 60 57 57 56 54 51 48 49 50 43 38 37 25 22 18 7 357 342 327 326 295 139 126 119 151 205 257 279 270 255 258 268 276 280 284 286 288 290 290
77 69 65 63 59 55 54 57 55 50 47 43 43 40 33 31 22 10 8 8 0 341 329 344 1 16 13 87 177 259 288 288 281 265 260 260 266 272 275 278 282 284 285
77 74 70 67 63 58 54 54 54 48 51 40 38 38 30 20 15 1 350 350 349 342 329 343 341 357 1 331 314 302 288 287 278 267 262 260 259 262 267 272 278 282 284
78 78 77 75 70 61 54 52 52 48 46 40 30 31 22 19 11 350 353 353 354 358 332 316 325 331 326 307 296 283 282 274 272 272 266 258 254 255 258 265 271 276 279
78 77 75 74 73 70 63 58 52 46 40 38 30 24 16 15 5 357 352 341 337 323 319 318 313 305 302 296 287 287 294 298 298 295 283 262 255 255 257 260 264 267 270
81 80 80 77 73 67 56 45 46 43 34 30 26 12 7 17 9 2 338 341 337 339 326 311 306 302 298 300 308 306 305 303 303 303 299 280 267 266 264 264 264 265 266
90 86 82 76 67 55 40 24 15 24 21 16 12 355 359 22 14 351 333 345 342 332 318 310 302 303 303 314 323 316 311 306 303 304 310 308 295 283 273 270 268 267 267
89 86 80 72 67 62 36 21 358 6 2 360 358 350 345 4 358 296 322 331 323 319 315 311 312 312 318 330 328 318 312 309 301 300 316 308 301 292 285 274 269 264 260
71 67 63 65 60 55 36 19 2 344 335 342 351 346 328 37 317 274 281 286 282 287 298 304 304 309 313 318 319 314 314 315 311 311 316 303 300 295 286 281 253 246 251
72 66 65 79 85 67 29 4 353 325 312 324 334 332 338 1 13 357 336 319 301 285 266 265 282 290 297 305 313 312 312 309 299 298 301 296 300 300 295 296 231 247 263
63 70 65 79 98 83 25 357 341 317 307 323 326 334 342 10 28 356 329 321 316 313 300 275 266 276 285 291 293 291 291 294 290 292 297 293 304 309 312 299 238 254 273
45 72 70 74 98 110 24 356 347 319 332 342 340 1 360 26 24 345 325 321 320 320 325 321 291 279 279 279 272 281 287 296 304 310 317 295 303 314 306 316 313 278 291
38 55 67 72 87 109 109 351 346 335 352 345 342 3 60 2 337 329 321 316 314 320 324 318 309 296 283 277 266 240 255 280 294 303 322 316 307 326 313 313 328 326 310